KQA601 HKKI-HKJK

Flight info

Callsign KQA601
Flight time 0h 32m
Altitude 23000
Route IBSUL1B IBSUL DCT NAKAT NAKAT4A
Aircraft B738/M-SDE1E2E3FGHIJ2J3J4J5M1RWXYZ/LB1D1

Departure

Time 2026-04-14 07:31
Airport Kisumu International Airport (HKKI)

Arrival

Time 2026-04-14 08:03
Airport Jomo Kenyatta International Airport (HKJK)
Time Latitude Longitude Altitude Speed Heading
2026-04-14 07:06 -0.08297 34.72915 3776 ft 0 kts 64°
2026-04-14 07:24 -0.08297 34.72916 3776 ft 2 kts 64°
2026-04-14 07:24 -0.08303 34.72982 3784 ft 15 kts 142°
2026-04-14 07:25 -0.08399 34.73038 3779 ft 16 kts 151°
2026-04-14 07:25 -0.08467 34.73101 3787 ft 13 kts 94°
2026-04-14 07:25 -0.08433 34.73185 3780 ft 13 kts 62°
2026-04-14 07:25 -0.08392 34.73261 3781 ft 12 kts 62°
2026-04-14 07:26 -0.08351 34.73336 3781 ft 12 kts 61°
2026-04-14 07:26 -0.08311 34.73409 3777 ft 12 kts 61°
2026-04-14 07:26 -0.08272 34.73480 3778 ft 12 kts 62°
2026-04-14 07:26 -0.08236 34.73550 3786 ft 11 kts 60°
2026-04-14 07:27 -0.08178 34.73599 3778 ft 11 kts 31°
2026-04-14 07:27 -0.08127 34.73647 3776 ft 10 kts 90°
2026-04-14 07:27 -0.08173 34.73668 3776 ft 8 kts 219°
2026-04-14 07:27 -0.08182 34.73647 3778 ft 0 kts 243°
2026-04-14 07:30 -0.08227 34.73562 3775 ft 48 kts 242°
2026-04-14 07:30 -0.08515 34.73035 3780 ft 123 kts 241°
2026-04-14 07:31 -0.09032 34.72084 3783 ft 186 kts 241°
2026-04-14 07:31 -0.09663 34.70934 4708 ft 182 kts 238°
2026-04-14 07:31 -0.10469 34.69935 5561 ft 187 kts 213°
2026-04-14 07:31 -0.11730 34.69515 6021 ft 207 kts 174°
2026-04-14 07:32 -0.13129 34.69963 6271 ft 225 kts 145°
2026-04-14 07:32 -0.14470 34.70959 6487 ft 248 kts 141°
2026-04-14 07:32 -0.15871 34.72014 6903 ft 255 kts 142°
2026-04-14 07:32 -0.17299 34.73039 7470 ft 258 kts 143°
2026-04-14 07:33 -0.18786 34.74057 8025 ft 262 kts 144°
2026-04-14 07:33 -0.20358 34.75095 8283 ft 281 kts 146°
2026-04-14 07:33 -0.22027 34.76165 8916 ft 288 kts 146°
2026-04-14 07:34 -0.27277 34.79427 10652 ft 321 kts 147°
2026-04-14 07:34 -0.29098 34.80542 10934 ft 337 kts 147°
2026-04-14 07:34 -0.31118 34.81773 11472 ft 344 kts 147°
2026-04-14 07:35 -0.33176 34.83025 12182 ft 346 kts 147°
2026-04-14 07:35 -0.35241 34.84279 12922 ft 349 kts 147°
2026-04-14 07:35 -0.37324 34.85545 13642 ft 353 kts 147°
2026-04-14 07:35 -0.39436 34.86830 14296 ft 357 kts 147°
2026-04-14 07:36 -0.41562 34.88121 14926 ft 359 kts 147°
2026-04-14 07:36 -0.43647 34.89492 15565 ft 362 kts 138°
2026-04-14 07:36 -0.45382 34.91322 16208 ft 363 kts 129°
2026-04-14 07:36 -0.47010 34.93260 16861 ft 366 kts 128°
2026-04-14 07:37 -0.48647 34.95247 17463 ft 370 kts 128°
2026-04-14 07:37 -0.50290 34.97239 18076 ft 374 kts 129°
2026-04-14 07:37 -0.51391 34.98567 18473 ft 376 kts 129°
2026-04-14 07:37 -0.53067 35.00581 18895 ft 379 kts 129°
2026-04-14 07:38 -0.54766 35.02606 18994 ft 379 kts 129°
2026-04-14 07:38 -0.56481 35.04638 19115 ft 387 kts 129°
2026-04-14 07:38 -0.58237 35.06716 19047 ft 392 kts 129°
2026-04-14 07:38 -0.59989 35.08785 19055 ft 390 kts 129°
2026-04-14 07:39 -0.61739 35.10852 19058 ft 389 kts 129°
2026-04-14 07:39 -0.63483 35.12913 19055 ft 389 kts 129°
2026-04-14 07:39 -0.65225 35.14972 19068 ft 389 kts 129°
2026-04-14 07:39 -0.66976 35.17041 19070 ft 388 kts 129°
2026-04-14 07:40 -0.68721 35.19105 19064 ft 388 kts 129°
2026-04-14 07:40 -0.70463 35.21164 19078 ft 388 kts 129°
2026-04-14 07:40 -0.72227 35.23250 19071 ft 388 kts 129°
2026-04-14 07:40 -0.73952 35.25289 19079 ft 388 kts 129°
2026-04-14 07:41 -0.75698 35.27354 19076 ft 388 kts 129°
2026-04-14 07:41 -0.77441 35.29415 19078 ft 388 kts 129°
2026-04-14 07:41 -0.79178 35.31468 19090 ft 388 kts 129°
2026-04-14 07:41 -0.80924 35.33534 19091 ft 388 kts 129°
2026-04-14 07:42 -0.82667 35.35595 19091 ft 388 kts 129°
2026-04-14 07:42 -0.84275 35.37753 19077 ft 387 kts 119°
2026-04-14 07:42 -0.85544 35.40110 19088 ft 386 kts 116°
2026-04-14 07:42 -0.86743 35.42513 19098 ft 385 kts 116°
2026-04-14 07:43 -0.87920 35.44912 19094 ft 385 kts 116°
2026-04-14 07:43 -0.89097 35.47301 19098 ft 384 kts 116°
2026-04-14 07:43 -0.90287 35.49689 19093 ft 380 kts 116°
2026-04-14 07:43 -0.91471 35.52041 19101 ft 378 kts 116°
2026-04-14 07:44 -0.92657 35.54382 19106 ft 378 kts 116°
2026-04-14 07:44 -0.93852 35.56727 19114 ft 380 kts 116°
2026-04-14 07:44 -0.95055 35.59085 19108 ft 381 kts 116°
2026-04-14 07:44 -0.96259 35.61440 19114 ft 380 kts 117°
2026-04-14 07:45 -0.97463 35.63793 19123 ft 382 kts 117°
2026-04-14 07:45 -0.98673 35.66158 19122 ft 382 kts 117°
2026-04-14 07:45 -0.99874 35.68508 19130 ft 380 kts 117°
2026-04-14 07:45 -1.01080 35.70866 19132 ft 382 kts 117°
2026-04-14 07:46 -1.02289 35.73228 19134 ft 381 kts 117°
2026-04-14 07:46 -1.03500 35.75599 19142 ft 384 kts 117°
2026-04-14 07:46 -1.04723 35.77988 19149 ft 388 kts 117°
2026-04-14 07:46 -1.05956 35.80401 19151 ft 389 kts 117°
2026-04-14 07:47 -1.07184 35.82801 19144 ft 388 kts 117°
2026-04-14 07:47 -1.08410 35.85199 19149 ft 386 kts 117°
2026-04-14 07:47 -1.09632 35.87589 19154 ft 388 kts 117°
2026-04-14 07:47 -1.10867 35.90003 19158 ft 391 kts 117°
2026-04-14 07:48 -1.12102 35.92419 19153 ft 389 kts 117°
2026-04-14 07:48 -1.13332 35.94825 19164 ft 388 kts 117°
2026-04-14 07:48 -1.14557 35.97221 19164 ft 388 kts 117°
2026-04-14 07:48 -1.15783 35.99619 19165 ft 387 kts 117°
2026-04-14 07:49 -1.17010 36.02019 19160 ft 387 kts 117°
2026-04-14 07:49 -1.18232 36.04408 19163 ft 387 kts 116°
2026-04-14 07:49 -1.19454 36.06798 19161 ft 384 kts 116°
2026-04-14 07:49 -1.20653 36.09144 19156 ft 373 kts 116°
2026-04-14 07:50 -1.21812 36.11410 19153 ft 363 kts 116°
2026-04-14 07:50 -1.22962 36.13660 19156 ft 363 kts 116°
2026-04-14 07:50 -1.24113 36.15911 19030 ft 366 kts 116°
2026-04-14 07:50 -1.25266 36.18168 18761 ft 362 kts 116°
2026-04-14 07:51 -1.26410 36.20408 18355 ft 361 kts 116°
2026-04-14 07:51 -1.27534 36.22606 17912 ft 359 kts 116°
2026-04-14 07:51 -1.28677 36.24843 17482 ft 356 kts 116°
2026-04-14 07:51 -1.29797 36.27034 17053 ft 353 kts 116°
2026-04-14 07:52 -1.30909 36.29211 16647 ft 350 kts 116°
2026-04-14 07:52 -1.32012 36.31369 16238 ft 347 kts 116°
2026-04-14 07:52 -1.33090 36.33479 15850 ft 344 kts 116°
2026-04-14 07:52 -1.34176 36.35603 15443 ft 342 kts 116°
2026-04-14 07:53 -1.35244 36.37716 15040 ft 340 kts 114°
2026-04-14 07:53 -1.36154 36.39906 14512 ft 341 kts 109°
2026-04-14 07:53 -1.36953 36.42127 14086 ft 340 kts 108°
2026-04-14 07:53 -1.37730 36.44354 13664 ft 338 kts 108°
2026-04-14 07:54 -1.38505 36.46558 13224 ft 335 kts 108°
2026-04-14 07:54 -1.39283 36.48739 12986 ft 328 kts 108°
2026-04-14 07:54 -1.40040 36.50834 12863 ft 317 kts 109°
2026-04-14 07:54 -1.40789 36.52895 12467 ft 315 kts 109°
2026-04-14 07:55 -1.41484 36.54796 12051 ft 317 kts 109°
2026-04-14 07:55 -1.42262 36.56920 11740 ft 313 kts 109°
2026-04-14 07:55 -1.43005 36.58944 11420 ft 309 kts 109°
2026-04-14 07:55 -1.43744 36.60957 11100 ft 306 kts 109°
2026-04-14 07:56 -1.44466 36.62923 11016 ft 295 kts 109°
2026-04-14 07:56 -1.45164 36.64822 10800 ft 288 kts 109°
2026-04-14 07:56 -1.45840 36.66660 10830 ft 273 kts 109°
2026-04-14 07:56 -1.46477 36.68395 10764 ft 258 kts 109°
2026-04-14 07:57 -1.46974 36.70049 10653 ft 241 kts 94°
2026-04-14 07:57 -1.46616 36.71597 10622 ft 222 kts 66°
2026-04-14 07:57 -1.45942 36.72919 10529 ft 204 kts 64°
2026-04-14 07:57 -1.45304 36.74102 10397 ft 184 kts 63°
2026-04-14 07:58 -1.44655 36.75147 10151 ft 174 kts 59°
2026-04-14 07:58 -1.43964 36.76157 9701 ft 175 kts 58°
2026-04-14 07:58 -1.43260 36.77146 9296 ft 174 kts 57°
2026-04-14 07:58 -1.42558 36.78120 8876 ft 171 kts 57°
2026-04-14 07:59 -1.41859 36.79084 8454 ft 171 kts 56°
2026-04-14 07:59 -1.41170 36.80032 8183 ft 164 kts 57°
2026-04-14 07:59 -1.40497 36.80959 7971 ft 169 kts 57°
2026-04-14 07:59 -1.39791 36.81932 7752 ft 174 kts 56°
2026-04-14 08:00 -1.39083 36.82906 7544 ft 171 kts 57°
2026-04-14 08:00 -1.38384 36.83867 7310 ft 170 kts 56°
2026-04-14 08:00 -1.37694 36.84818 7098 ft 169 kts 56°
2026-04-14 08:00 -1.37010 36.85759 6897 ft 166 kts 57°
2026-04-14 08:01 -1.36344 36.86677 6695 ft 157 kts 56°
2026-04-14 08:01 -1.35722 36.87531 6440 ft 147 kts 55°
2026-04-14 08:01 -1.35136 36.88339 6234 ft 141 kts 56°
2026-04-14 08:01 -1.34570 36.89119 6040 ft 142 kts 55°
2026-04-14 08:02 -1.33994 36.89912 5831 ft 140 kts 57°
2026-04-14 08:02 -1.33440 36.90691 5644 ft 136 kts 56°
2026-04-14 08:02 -1.32885 36.91459 5419 ft 138 kts 52°
2026-04-14 08:02 -1.32316 36.92237 5320 ft 133 kts 53°
2026-04-14 08:03 -1.31852 36.92877 5304 ft 92 kts 54°
2026-04-14 08:03 -1.31565 36.93276 5301 ft 22 kts 72°
2026-04-14 08:03 -1.31616 36.93365 5306 ft 15 kts 144°
2026-04-14 08:03 -1.31698 36.93424 5308 ft 15 kts 144°
2026-04-14 08:04 -1.31782 36.93478 5305 ft 14 kts 165°
2026-04-14 08:04 -1.31856 36.93431 5307 ft 13 kts 233°
2026-04-14 08:04 -1.31908 36.93359 5311 ft 13 kts 233°
2026-04-14 08:04 -1.31961 36.93287 5310 ft 12 kts 233°
2026-04-14 08:05 -1.32011 36.93218 5312 ft 12 kts 234°
2026-04-14 08:05 -1.32059 36.93152 5313 ft 12 kts 233°
2026-04-14 08:05 -1.32108 36.93085 5310 ft 12 kts 233°
2026-04-14 08:05 -1.32155 36.93023 5311 ft 11 kts 233°
2026-04-14 08:06 -1.32201 36.92961 5318 ft 11 kts 233°
2026-04-14 08:06 -1.32244 36.92899 5321 ft 11 kts 233°
2026-04-14 08:06 -1.32300 36.92824 5315 ft 19 kts 233°
2026-04-14 08:06 -1.32398 36.92688 5321 ft 30 kts 234°
2026-04-14 08:07 -1.32533 36.92503 5323 ft 33 kts 233°
2026-04-14 08:07 -1.32647 36.92358 5314 ft 17 kts 208°
2026-04-14 08:07 -1.32743 36.92387 5318 ft 13 kts 162°
2026-04-14 08:07 -1.32801 36.92388 5319 ft 7 kts 157°
2026-04-14 08:08 -1.32846 36.92407 5318 ft 6 kts 156°
2026-04-14 08:08 -1.32878 36.92421 5321 ft 2 kts 155°
2026-04-14 08:08 -1.32881 36.92423 5322 ft 0 kts 156°